Tracking 28522 objects as of 28-Feb-2024
HD Live streaming from Space Station
objects crossing your sky now

DELTA 1 R/B(2)

Track DELTA 1 R/B(2) now!


NORAD ID: 1318
Int'l Code: 1965-028B
Perigee: 1,447.9 km
Apogee: 37,030.7 km
Inclination: 17.1 °
Period: 679.8 minutes
Semi major axis: 25610 km
RCS: 0.7392 m2 (medium)
Launch date: April 6, 1965
Source: United States (US)
Launch site: AIR FORCE EASTERN TEST RANGE (AFETR)

Note: This is a ROCKET BODY
Your satellite tracking list
Your tracking list is empty




NASA's NSSDC Master Catalog

Two Line Element Set (TLE):
1  1318U 65028B   24058.61053594 -.00000045  00000-0  00000+0 0  9995
2  1318  17.0644 137.4955 6946969  82.0602 352.6769  2.11826812240744
Source of the keplerian elements: AFSPC